Temp
72 73 73 73 73 72 72 71 70 71 72 74 74 74 76 75 76 76 75 81 81 81 82 83 82 81 81 81 80 80 80 80 80 80 80 80 79 79 79 80 80 80 79
74 75 72 73 72 72 73 71 71 70 70 69 70 74 74 76 75 76 76 75 81 81 82 83 83 82 82 81 80 80 80 80 80 79 79 79 79 79 79 79 79 79 79
74 73 73 73 73 72 72 72 71 69 68 69 70 74 73 74 74 74 75 75 76 81 82 82 82 82 82 81 81 80 80 79 79 79 79 78 78 78 78 78 79 79 78
74 73 72 72 74 72 71 71 70 70 69 69 70 71 71 70 71 71 73 75 75 78 79 81 82 81 82 82 82 81 80 79 79 78 78 78 78 78 77 78 78 78 78
76 73 73 72 73 72 71 71 71 69 70 70 70 70 70 69 70 74 74 74 76 77 77 80 81 81 82 83 83 83 81 79 79 78 78 79 78 78 77 77 77 77 77
77 74 73 73 72 71 71 70 69 68 68 68 70 71 70 71 70 69 72 75 76 76 77 77 77 79 81 82 82 83 83 81 79 79 79 78 78 78 77 77 77 77 77
75 73 72 72 72 71 71 70 69 67 67 67 66 66 67 70 70 71 71 73 74 78 76 76 76 77 79 80 81 82 82 83 81 80 79 78 78 78 77 77 77 76 76
74 73 71 71 72 70 71 70 68 67 65 66 65 63 62 65 68 70 70 71 71 74 74 78 77 77 78 78 79 80 81 82 82 81 79 78 78 77 77 77 76 76 76
75 74 74 72 72 71 70 70 69 66 65 66 67 65 61 59 64 69 70 70 70 69 71 72 73 75 76 77 79 79 80 80 81 82 81 79 78 77 77 76 76 76 76
75 74 73 72 71 70 69 68 70 67 65 66 66 67 66 65 62 63 66 68 69 69 69 69 71 72 73 73 77 79 79 77 78 80 81 81 79 77 77 77 77 76 76
73 73 71 69 67 67 67 67 67 66 66 65 64 64 64 65 65 64 63 66 70 70 71 70 70 71 73 74 74 77 77 77 77 77 78 81 81 79 78 78 78 78 77
68 69 70 68 67 67 66 65 66 65 65 65 64 63 62 61 61 61 60 62 63 68 70 70 68 69 72 72 76 77 77 77 76 75 76 77 79 80 80 80 79 79 79
66 66 67 66 65 66 66 65 65 65 64 64 63 63 63 63 63 62 61 61 60 66 67 70 72 69 71 71 72 76 77 75 74 73 73 73 75 76 78 79 81 81 81
66 66 66 66 66 67 66 65 64 65 65 64 64 63 62 62 62 62 61 60 59 63 66 62 64 67 69 69 71 74 72 73 72 71 70 71 71 72 73 75 76 78 79
67 67 67 67 67 67 66 65 64 64 63 63 63 62 61 62 61 60 61 61 59 55 59 66 65 64 66 68 70 70 70 71 72 70 69 69 69 70 70 71 72 72 74
66 69 69 68 68 66 66 65 63 63 62 61 62 61 60 64 65 65 65 65 63 59 56 65 66 68 64 70 68 70 69 71 71 71 69 68 68 68 68 69 70 70 70
66 68 68 68 65 66 65 63 62 63 61 60 60 60 61 62 62 63 63 63 62 63 58 62 66 67 63 64 67 68 68 68 68 69 69 68 68 68 68 68 68 69 69
65 65 67 65 67 65 63 62 61 61 59 59 60 59 60 63 60 62 61 61 62 63 59 58 64 66 65 66 63 64 67 71 68 70 68 68 67 66 65 66 66 66 66
64 65 65 65 66 63 62 61 60 59 58 58 59 59 59 60 59 60 61 62 63 62 60 58 58 64 66 67 63 61 63 65 69 71 69 68 67 66 65 64 63 62 60
64 65 65 66 63 63 62 61 59 58 58 60 60 59 59 59 59 62 62 62 60 58 58 57 57 60 63 64 61 59 59 63 64 69 71 69 68 68 66 64 64 63 61
66 67 65 63 62 63 64 60 59 57 56 57 58 59 60 63 66 64 61 60 59 58 58 57 56 58 57 57 57 60 60 63 63 65 65 66 67 68 69 67 68 67 63
66 66 62 62 61 64 63 62 62 56 56 55 55 57 61 64 64 63 62 61 60 58 57 57 57 56 57 58 60 59 60 62 61 65 64 65 67 66 70 71 69 65 63
63 62 62 61 60 60 61 60 63 55 54 54 55 58 61 64 62 60 60 58 58 59 60 60 57 58 57 60 61 61 61 62 63 64 65 63 64 65 69 71 66 64 62
63 61 61 61 60 60 60 59 59 53 53 54 55 58 59 60 61 58 58 56 59 59 61 61 60 61 61 62 61 62 62 63 62 64 66 62 63 64 66 67 65 63 61
62 62 61 61 60 59 58 57 55 51 52 53 57 60 60 60 59 57 57 55 58 60 61 60 60 61 61 61 61 61 61 61 60 61 67 63 63 63 65 67 68 63 61
63 63 62 61 60 58 55 54 53 49 50 53 56 59 60 58 56 54 55 55 54 57 62 63 59 59 59 60 60 61 62 61 60 59 63 63 62 63 63 65 66 67 66
MSLP
1018.44 1018.35 1018.24 1018.22 1018.17 1018.18 1018.15 1018.12 1018.21 1018.09 1017.97 1017.77 1017.57 1017.44 1017.29 1017.19 1017.14 1016.91 1016.75 1016.53 1016.57 1016.61 1016.77 1016.93 1017.08 1017.32 1017.67 1017.85 1017.93 1018.09 1018.33 1018.41 1018.49 1018.67 1018.77 1018.77 1018.92 1019.10 1019.22 1019.37 1019.48 1019.55 1019.71
1018.17 1018.18 1018.23 1018.17 1018.07 1017.97 1017.77 1017.73 1017.70 1017.81 1017.78 1017.83 1017.75 1017.52 1017.33 1017.01 1016.79 1016.71 1016.42 1016.35 1016.21 1016.17 1016.23 1016.25 1016.46 1016.69 1016.87 1017.22 1017.36 1017.55 1017.81 1018.00 1018.07 1018.18 1018.37 1018.45 1018.49 1018.63 1018.80 1018.87 1019.02 1019.19 1019.36
1017.79 1017.91 1018.00 1017.87 1017.79 1017.78 1017.76 1017.61 1017.46 1017.53 1017.59 1017.41 1017.42 1016.97 1016.83 1016.47 1016.43 1016.26 1016.06 1015.92 1015.74 1015.61 1015.61 1015.71 1015.79 1015.89 1016.05 1016.09 1016.45 1016.81 1017.00 1017.27 1017.50 1017.70 1017.79 1017.95 1018.08 1018.17 1018.29 1018.45 1018.54 1018.66 1018.82
1017.29 1017.52 1017.80 1017.78 1017.56 1017.75 1017.59 1017.53 1017.43 1017.42 1017.36 1017.22 1017.08 1016.68 1016.63 1016.37 1016.09 1015.87 1015.90 1015.69 1015.38 1015.19 1014.95 1014.96 1015.05 1015.24 1015.35 1015.47 1015.67 1015.95 1016.14 1016.34 1016.64 1016.84 1017.11 1017.24 1017.38 1017.61 1017.77 1017.97 1018.11 1018.21 1018.33
1016.85 1017.10 1017.30 1017.33 1017.40 1017.61 1017.61 1017.69 1017.65 1017.59 1017.29 1017.01 1016.84 1016.49 1016.18 1016.10 1015.78 1015.48 1015.35 1015.11 1014.87 1014.72 1014.38 1014.26 1014.39 1014.52 1014.58 1014.59 1014.67 1014.95 1015.18 1015.34 1015.70 1015.91 1016.09 1016.42 1016.66 1016.97 1017.17 1017.40 1017.57 1017.78 1017.91
1016.70 1016.89 1017.00 1017.07 1017.24 1017.54 1017.59 1017.61 1017.58 1017.47 1017.39 1017.14 1016.84 1016.37 1015.91 1015.57 1015.37 1015.21 1014.93 1014.58 1014.33 1014.16 1013.99 1013.91 1013.84 1013.82 1013.70 1013.73 1013.78 1014.02 1014.29 1014.49 1014.70 1014.88 1015.00 1015.27 1015.68 1016.11 1016.41 1016.71 1016.93 1017.09 1017.35
1016.75 1016.86 1016.93 1016.99 1017.09 1017.33 1017.37 1017.36 1017.47 1017.52 1017.31 1017.13 1017.01 1016.25 1015.66 1015.13 1014.92 1014.65 1014.61 1014.35 1014.00 1013.66 1013.49 1013.41 1013.41 1013.30 1013.01 1012.89 1013.01 1013.12 1013.35 1013.58 1013.88 1014.01 1014.13 1014.29 1014.50 1015.06 1015.51 1015.87 1016.19 1016.42 1016.59
1016.75 1016.90 1017.02 1017.14 1017.10 1017.31 1017.39 1017.47 1017.57 1017.65 1017.51 1017.24 1017.33 1017.11 1016.28 1015.26 1014.75 1014.51 1014.23 1014.13 1013.86 1013.37 1013.20 1012.95 1012.77 1012.55 1012.36 1012.24 1012.21 1012.32 1012.43 1012.55 1012.84 1013.05 1013.39 1013.60 1013.83 1014.02 1014.37 1014.76 1015.18 1015.42 1015.67
1016.40 1016.61 1016.64 1016.72 1016.91 1017.08 1017.24 1017.29 1017.36 1017.60 1017.57 1017.18 1017.05 1017.18 1016.70 1016.25 1015.37 1014.26 1014.08 1013.77 1013.65 1013.44 1013.17 1012.71 1012.36 1012.10 1011.90 1011.77 1011.65 1011.57 1011.53 1011.71 1011.83 1012.10 1012.27 1012.53 1012.93 1013.32 1013.46 1013.77 1014.08 1014.38 1014.59
1016.02 1016.24 1016.39 1016.46 1016.61 1016.81 1017.16 1017.23 1017.28 1017.33 1017.42 1017.32 1016.98 1016.75 1016.64 1016.46 1016.14 1014.77 1014.14 1013.85 1013.44 1013.32 1013.00 1012.59 1012.23 1011.76 1011.53 1011.29 1011.06 1010.98 1010.80 1010.99 1011.19 1011.28 1011.45 1011.67 1011.97 1012.21 1012.56 1012.79 1012.99 1013.39 1013.59
1016.15 1016.27 1016.56 1016.79 1017.04 1017.05 1017.13 1017.27 1017.30 1017.31 1017.31 1017.22 1017.03 1016.79 1016.57 1016.38 1016.20 1015.87 1014.46 1013.74 1013.45 1012.92 1012.52 1012.22 1011.81 1011.35 1010.99 1010.66 1010.56 1010.32 1010.23 1010.38 1010.57 1010.63 1010.73 1010.77 1010.93 1011.31 1011.45 1011.64 1011.95 1012.15 1012.60
1016.59 1016.55 1016.67 1016.89 1016.96 1017.03 1017.21 1017.28 1017.31 1017.31 1017.23 1017.18 1017.01 1016.89 1016.73 1016.57 1016.21 1016.02 1015.25 1014.25 1013.51 1012.54 1012.10 1011.72 1011.41 1011.10 1010.56 1010.17 1009.85 1009.73 1009.68 1009.59 1009.59 1009.72 1009.82 1009.93 1009.95 1010.12 1010.47 1010.76 1011.07 1011.23 1011.42
1016.81 1016.81 1016.95 1017.15 1017.35 1017.09 1016.93 1017.00 1017.26 1017.29 1017.15 1017.04 1016.92 1016.75 1016.42 1016.29 1016.07 1015.75 1015.35 1014.37 1013.33 1012.26 1011.65 1011.01 1010.74 1010.43 1009.94 1009.65 1009.43 1009.24 1009.06 1009.03 1008.89 1008.83 1009.00 1009.05 1009.01 1009.22 1009.38 1009.53 1010.09 1010.27 1010.37
1016.48 1016.67 1016.71 1016.94 1016.87 1016.66 1016.53 1016.33 1016.69 1017.01 1017.03 1016.84 1016.70 1016.56 1016.30 1015.76 1015.57 1015.47 1015.26 1014.74 1013.16 1011.95 1011.06 1010.62 1009.95 1009.69 1009.31 1009.08 1008.85 1008.64 1008.69 1008.67 1008.59 1008.44 1008.23 1008.15 1008.29 1008.55 1008.65 1008.85 1009.03 1009.47 1009.68
1016.35 1016.31 1016.39 1016.69 1016.53 1016.43 1016.53 1016.83 1016.55 1016.51 1016.81 1016.65 1016.40 1016.15 1015.91 1015.43 1015.04 1014.68 1014.39 1014.15 1013.75 1012.20 1009.57 1009.57 1009.45 1008.85 1008.61 1008.25 1008.06 1007.96 1007.94 1007.95 1007.96 1007.83 1007.75 1007.69 1007.84 1007.96 1008.13 1008.21 1008.15 1008.47 1008.87
1016.05 1016.04 1016.15 1016.37 1016.62 1016.52 1016.19 1016.50 1016.42 1016.41 1016.49 1016.33 1016.15 1015.95 1015.53 1014.98 1014.35 1013.84 1013.30 1012.73 1012.40 1011.72 1009.48 1009.02 1008.37 1008.21 1008.05 1007.59 1007.35 1007.17 1007.03 1006.93 1006.96 1006.95 1007.03 1007.21 1007.36 1007.34 1007.31 1007.31 1007.41 1007.34 1008.07
1015.64 1015.90 1016.06 1016.32 1016.44 1016.24 1016.36 1016.21 1016.31 1016.43 1016.35 1016.17 1015.76 1015.43 1014.79 1014.18 1013.66 1012.87 1012.17 1011.59 1011.09 1010.74 1009.05 1007.90 1007.43 1007.37 1007.24 1007.05 1006.73 1006.43 1006.43 1006.38 1006.25 1006.11 1006.18 1006.27 1006.43 1006.40 1006.43 1006.49 1006.61 1006.38 1007.34
1015.55 1015.81 1016.06 1016.21 1016.11 1016.20 1016.26 1016.12 1016.12 1016.31 1016.31 1016.03 1015.38 1014.95 1014.31 1013.47 1012.84 1011.97 1011.34 1010.59 1009.85 1009.43 1008.70 1007.22 1006.80 1006.28 1006.20 1006.13 1005.96 1005.94 1005.88 1005.57 1005.45 1005.15 1005.15 1005.37 1005.53 1005.60 1005.69 1005.86 1006.11 1005.83 1006.61
1015.49 1015.73 1015.93 1015.99 1016.00 1015.80 1016.05 1015.75 1016.17 1016.15 1015.97 1015.69 1015.16 1014.56 1013.77 1013.03 1012.08 1011.16 1010.27 1009.22 1008.33 1007.60 1007.22 1006.60 1005.77 1005.49 1005.24 1004.98 1005.04 1005.11 1005.09 1004.96 1004.53 1004.15 1004.21 1004.40 1004.59 1004.85 1004.98 1005.27 1005.41 1005.89 1006.27
1015.34 1015.53 1015.65 1015.65 1015.55 1015.85 1015.79 1015.61 1015.89 1015.80 1015.51 1015.13 1014.56 1013.85 1013.21 1012.51 1011.45 1009.98 1008.80 1007.75 1006.69 1006.01 1005.71 1005.33 1004.85 1004.39 1004.36 1004.20 1004.17 1004.25 1004.15 1003.93 1003.59 1003.41 1003.21 1003.33 1003.64 1003.98 1004.39 1004.53 1004.73 1005.03 1005.47
1015.05 1015.25 1015.41 1015.65 1015.57 1015.73 1015.41 1015.58 1015.65 1015.50 1015.21 1014.67 1013.90 1013.37 1012.70 1011.79 1010.36 1009.09 1007.68 1006.35 1005.50 1004.56 1004.05 1003.82 1003.59 1003.49 1003.41 1003.61 1003.46 1003.35 1002.99 1002.89 1002.54 1002.64 1002.73 1002.76 1003.11 1003.29 1003.22 1003.47 1003.64 1004.05 1004.72
1014.92 1015.12 1015.34 1015.42 1015.53 1015.39 1015.19 1015.18 1015.45 1015.21 1014.73 1014.49 1013.67 1012.90 1011.97 1010.81 1009.38 1008.01 1006.59 1005.06 1003.90 1003.01 1002.48 1002.29 1002.15 1002.14 1002.26 1002.50 1002.49 1002.37 1002.21 1001.73 1001.66 1001.29 1001.93 1002.01 1002.27 1002.40 1002.44 1002.47 1002.44 1002.97 1003.55
1014.77 1014.93 1014.97 1015.03 1015.01 1014.80 1014.85 1014.91 1014.93 1014.73 1014.38 1013.82 1013.02 1012.25 1011.16 1009.88 1008.56 1007.17 1004.92 1003.16 1001.81 1001.17 1001.08 1000.85 1000.78 1000.90 1001.14 1001.32 1001.52 1001.17 1001.33 1001.18 1001.07 1000.95 1001.37 1001.43 1001.59 1001.77 1001.71 1001.62 1001.63 1002.13 1002.63
1014.24 1014.58 1014.66 1014.79 1014.90 1015.02 1014.99 1014.89 1014.71 1014.35 1014.03 1013.33 1012.61 1011.81 1011.01 1009.66 1008.31 1006.72 1004.12 1002.44 1001.02 1000.51 1000.09 999.93 999.68 999.61 999.94 1000.25 1000.69 1000.78 1000.55 1000.65 1000.80 1000.73 1000.91 1001.15 1000.92 1000.96 1000.90 1001.04 1001.03 1001.45 1001.68
1013.88 1013.97 1014.02 1014.32 1014.41 1014.68 1014.89 1014.91 1014.53 1014.32 1013.67 1013.17 1012.36 1011.57 1010.88 1009.83 1008.43 1006.78 1004.54 1002.89 1001.24 999.72 998.75 998.66 998.54 998.65 999.07 999.40 1000.12 1000.61 1000.58 1000.45 1000.57 1000.48 1000.35 1000.66 1000.62 1000.67 1000.65 1000.50 1000.59 1000.77 1001.30
1013.07 1013.32 1013.50 1013.68 1013.91 1014.41 1014.40 1014.49 1014.46 1014.30 1013.85 1013.17 1012.04 1011.42 1010.77 1010.13 1008.59 1006.85 1005.02 1003.94 1002.12 999.93 998.79 997.18 997.67 998.11 998.26 998.95 999.75 1000.26 1000.36 1000.15 1000.31 1000.25 999.74 1000.33 1000.56 1000.69 1000.74 1000.64 1000.55 1000.86 1001.01
Wind_Speed
4 3 4 3 3 3 4 4 4 4 5 5 5 5 6 5 5 3 3 8 14 15 17 17 17 18 18 17 16 16 16 16 16 16 16 15 14 14 15 14 14 13 12
5 3 4 4 4 3 4 4 4 3 4 3 6 5 6 5 4 5 4 4 11 16 18 17 17 18 19 19 19 18 17 18 16 15 16 15 15 15 15 16 16 14 13
5 5 4 4 4 3 5 4 3 3 4 3 5 6 5 5 4 5 5 4 5 13 17 18 18 19 20 20 20 19 18 18 17 17 17 17 16 15 15 15 15 16 14
6 5 4 5 3 3 3 3 4 4 4 4 4 4 4 5 6 6 5 5 4 5 8 16 19 20 20 21 21 21 20 20 20 19 18 18 19 17 16 16 15 14 13
6 5 4 5 4 3 3 2 2 2 3 4 4 5 4 5 7 5 7 6 7 7 5 11 15 19 21 22 21 21 21 22 22 21 21 20 19 18 17 17 17 16 16
4 4 4 5 3 3 4 3 3 2 3 4 5 6 5 6 5 6 7 6 6 7 6 8 6 9 19 22 22 22 22 23 23 23 23 22 20 20 19 18 18 17 17
5 4 3 3 3 4 4 3 1 2 3 2 3 4 4 6 6 6 3 6 7 8 6 7 6 6 7 17 21 21 23 24 23 23 23 23 22 21 20 19 18 17 17
5 4 4 5 4 3 4 3 2 2 2 1 2 2 4 5 3 3 4 5 7 5 6 8 8 9 8 6 10 19 23 25 25 24 23 22 22 22 22 21 20 18 18
4 2 4 4 4 2 3 3 2 3 3 2 4 2 4 3 7 2 4 5 5 4 6 7 7 7 7 7 10 13 21 23 25 26 25 24 23 22 22 22 21 20 19
1 2 3 2 2 1 1 1 1 2 2 4 2 3 4 3 4 8 3 4 5 5 6 6 6 7 8 6 12 17 17 18 22 23 25 25 24 23 23 23 23 22 21
4 4 3 3 3 2 1 1 3 3 2 2 2 2 2 3 3 3 10 7 7 5 6 6 6 6 8 7 6 10 13 17 17 22 23 23 24 25 24 25 24 23 22
2 3 3 2 2 1 2 2 3 3 4 4 3 3 2 2 3 3 5 10 11 8 5 5 5 6 7 7 11 16 18 18 18 19 21 23 22 23 24 25 25 26 24
0 0 1 1 1 1 2 2 3 4 4 3 4 4 3 4 3 3 5 10 8 9 8 7 8 6 7 7 9 14 14 11 11 14 18 18 18 19 20 21 24 26 24
3 3 1 2 3 2 3 1 1 4 5 4 6 5 4 5 3 4 5 8 14 14 11 10 4 5 6 7 11 17 9 13 12 12 13 13 13 14 16 17 17 21 22
3 4 4 2 3 3 4 4 2 3 4 5 5 5 4 5 5 6 7 8 10 15 18 11 9 7 6 7 10 10 9 14 18 15 13 12 12 12 15 18 18 17 19
4 3 2 2 4 5 3 3 3 4 4 4 4 6 7 8 9 8 9 10 10 13 19 15 11 10 7 9 10 12 11 17 18 19 18 15 15 15 15 17 18 15 14
4 3 2 2 4 4 4 3 4 5 5 6 7 8 12 13 10 11 10 11 12 12 18 14 15 12 11 12 10 8 9 10 9 19 21 18 16 15 13 16 17 15 15
3 3 2 4 2 3 3 2 3 3 6 8 11 10 13 11 14 14 11 15 14 14 15 20 16 13 14 12 7 8 8 10 10 16 20 20 16 14 13 14 15 15 17
2 3 3 4 3 2 3 1 1 4 6 8 11 12 15 15 16 14 16 15 15 12 14 14 14 14 13 10 9 7 9 13 11 18 17 21 19 17 16 16 14 14 15
4 3 4 4 3 3 3 1 3 6 7 10 12 12 14 16 18 20 18 19 17 14 14 12 13 14 11 9 7 9 10 10 11 9 14 13 17 20 19 16 17 17 15
5 5 5 4 1 3 2 1 4 6 8 11 13 12 13 20 30 27 17 17 18 14 12 11 12 11 10 8 9 10 12 11 8 8 6 7 7 8 9 14 15 17 16
5 4 4 4 3 3 4 3 5 6 8 9 11 13 13 22 23 28 29 32 26 15 15 11 11 13 13 9 10 10 10 10 7 6 7 8 7 8 7 7 12 14 16
4 6 5 6 5 4 5 3 8 5 7 9 9 12 12 13 20 19 27 27 22 24 24 14 14 14 12 12 10 11 11 8 7 1 5 3 5 7 7 7 12 14 14
5 5 6 5 3 4 4 4 9 6 8 9 9 12 14 19 19 26 24 21 15 10 11 10 14 14 13 13 11 9 5 7 3 2 4 4 3 4 3 5 9 9 10
5 6 4 4 2 4 3 6 7 6 7 10 10 12 14 17 27 30 22 22 19 13 13 21 21 21 20 15 8 4 8 3 4 3 6 3 2 2 2 3 3 8 10
6 5 5 4 5 4 1 6 6 4 6 7 9 11 16 17 27 28 22 17 17 15 12 6 9 15 13 11 13 10 6 4 2 2 5 5 3 1 3 2 2 2 2
Wind_Direction
265 283 274 276 255 241 240 247 251 270 284 304 294 266 269 261 262 270 274 247 215 219 226 233 226 223 231 236 235 231 231 235 233 237 240 241 248 254 235 239 247 246 249
239 242 255 253 255 236 251 248 243 266 255 274 279 297 277 272 254 261 259 255 249 228 231 234 232 223 224 228 231 231 233 236 237 235 240 242 240 242 252 239 238 242 243
227 232 247 264 258 271 267 271 277 253 273 260 263 257 258 258 263 260 244 239 243 246 242 239 238 234 225 221 223 226 224 228 234 237 235 239 241 238 242 249 249 241 236
210 226 242 258 271 244 248 283 295 294 257 258 261 259 246 259 268 273 256 245 232 240 237 243 238 238 233 228 225 223 220 222 225 230 235 238 241 236 237 240 243 245 244
214 202 221 252 253 271 267 274 290 236 288 288 274 271 250 246 257 261 266 243 244 239 229 239 241 243 238 235 231 227 225 218 220 223 229 233 237 241 240 237 239 241 242
240 229 234 245 271 274 280 269 259 261 268 283 294 281 269 256 241 238 258 259 257 245 238 238 239 240 244 241 236 227 225 226 219 219 220 225 228 234 238 239 237 236 240
262 257 255 266 238 234 250 269 267 278 290 269 313 308 278 256 262 257 254 266 268 268 240 238 234 234 243 241 243 233 227 227 229 225 220 220 219 225 230 235 236 236 236
243 232 242 268 265 267 281 296 257 308 278 242 263 261 315 321 338 291 252 259 262 265 274 261 250 242 240 243 238 239 231 227 230 228 225 222 221 219 222 225 230 230 233
279 315 288 275 278 227 266 270 243 218 285 294 223 241 315 275 322 291 286 248 281 284 272 270 263 258 255 250 247 243 242 233 229 231 226 220 219 222 220 221 224 226 225
242 61 59 38 17 37 358 303 275 235 200 285 308 225 256 268 296 311 334 320 278 288 280 285 275 269 256 246 249 246 245 235 234 237 235 228 224 219 221 222 220 223 223
115 96 87 95 90 102 109 48 330 303 262 277 245 291 268 269 272 271 302 306 299 276 262 256 260 268 270 254 237 248 250 241 232 234 239 238 231 226 223 223 222 220 221
64 42 65 89 98 72 9 338 315 294 284 286 295 294 255 272 283 274 295 302 291 289 264 249 248 251 263 262 261 255 245 248 241 234 236 236 239 235 229 230 228 225 220
315 188 145 33 313 323 332 310 308 297 287 271 276 281 269 264 266 262 290 293 281 295 288 263 257 248 250 253 257 255 243 218 231 230 228 229 232 237 235 228 240 236 226
193 191 202 247 266 275 269 262 249 282 284 282 286 274 272 267 249 253 269 288 296 290 278 270 247 237 247 245 242 243 240 224 210 208 211 215 223 231 236 238 232 240 236
194 197 206 239 279 293 303 301 269 276 292 283 280 274 265 264 257 255 260 259 265 288 284 278 272 222 235 240 238 245 237 226 219 221 219 212 218 227 232 230 223 227 232
197 192 205 262 304 292 299 306 298 304 299 294 290 299 290 287 281 273 267 263 250 255 271 277 264 266 256 254 241 243 238 235 233 233 224 217 226 229 231 228 223 206 217
182 206 232 272 278 304 326 318 341 313 331 317 300 284 284 288 283 278 273 269 265 261 266 265 271 268 257 258 254 244 237 237 237 236 231 220 222 223 225 220 212 189 205
196 210 226 252 254 283 321 336 318 331 321 303 297 294 287 289 283 280 277 269 262 260 265 272 269 269 259 251 239 238 250 252 238 237 220 211 200 200 200 208 210 188 200
214 247 235 221 254 271 256 137 304 305 295 293 293 289 288 291 287 285 278 273 270 264 258 261 262 265 264 248 245 252 254 255 247 237 223 216 213 206 202 205 203 211 227
212 223 205 213 218 242 246 140 324 311 301 298 292 286 288 290 290 292 290 284 272 265 257 253 252 259 256 248 228 251 263 244 241 237 234 220 223 228 222 216 208 209 228
201 209 201 233 206 245 193 282 307 301 293 296 299 298 292 294 302 297 289 293 284 266 256 248 247 248 244 235 237 249 248 248 228 223 227 225 218 226 237 231 229 218 222
209 196 216 236 237 260 234 332 323 286 292 301 302 304 299 306 310 309 302 292 277 263 255 240 241 238 239 230 237 238 248 233 243 195 207 234 193 223 230 224 202 205 213
195 203 224 233 242 238 240 312 310 304 297 291 296 297 307 312 317 315 324 309 287 269 250 241 238 232 231 223 240 231 228 232 230 246 195 252 168 224 225 222 201 195 200
193 205 235 248 271 288 254 318 320 321 303 294 293 305 305 315 322 328 339 330 320 278 255 238 236 237 229 226 230 252 226 229 228 197 171 219 177 228 185 209 199 202 213
190 211 223 259 256 254 266 325 344 326 309 307 314 318 322 320 330 335 346 336 331 314 263 242 231 232 229 222 214 238 262 226 246 223 196 194 200 229 231 220 185 204 226
198 204 220 223 243 214 297 323 351 321 318 313 319 331 330 322 333 345 356 342 342 328 355 311 225 236 222 225 216 219 249 210 199 282 207 170 151 149 10 27 36 85 323